Weather in Krasivoye

Russia / Jewish Autonomous Oblast     48°17′04″N   132°32′18″E
temp.,
°C
wind,
m/s
gust,
m/s
humid.,
%
clouds,
%
prec.,
mm/h
press.,
hPa
HPBL,
m
6 may, thu
thu601:00+5se229355 0.0 99773
04:00+4sse1195100 0.0 99729
07:00+5w119483 0.0 99865
10:00+10wsw347461 0.0 999809
13:00+14wsw5854100 0.3 9992025
16:00+16w584084 0.4 9982454
19:00+15wnw36473 0.0 999322
22:00+10n115825 0.0 100011
7 may, fri
fri701:00+9nnw11677 0.0 100110
04:00+8n2275100 0.0 100025
07:00+8ene2378100 0.0 100084
10:00+11ene4667100 0.0 1000595
13:00+13e6958100 0.0 997852
16:00+13ene81361100 0.0 993777
19:00+9e61088100 4.2 993574
22:00+6ene71490100 10.5 992685
8 may, sat
sat801:00+5ene71592100 0.8 990765
04:00+4ene61290100 1.0 989627
07:00+4ene51293100 0.6 990642
10:00+4ene41093100 0.6 991644
13:00+4ene4992100 0.0 993650
16:00+3ene4795100 0.1 994591
19:00+2ne4998100 0.2 995448
22:00+3ne41197100 0.3 995617
9 may, sun
sun901:00+3ne41097100 0.1 995655
04:00+3n4898100 0.1 994727
07:00+4nw4795100 0.1 994712
10:00+5nw3795100 0.5 995849
13:00+6nw3789100 0.8 996975
16:00+6e1392100 2.9 997343
19:00+5w1196100 2.7 99896
22:00+5nw2696100 5.4 1000437
10 may, mon
mon1001:00+5nw2497100 0.8 1002224
04:00+5ne2496100 1.2 1004592
07:00+5nne2496100 0.3 1006732
10:00+5ene2392100 0.5 1007679
13:00+5e1189100 0.1 1009555
16:00+6e2288100 0.1 1010564
19:00+5ese2393100 0.2 1011408
22:00+4e2494100 0.3 1013659